Theta_e
331 330 327 325 325 323 321 319 315 310 312 318 318 324 324 325 327 328 329 327 328 328 327 327 329 330 330 330 330 331 332 333 335 336 338 340 342 342
328 327 325 323 322 320 318 318 318 312 310 317 319 322 325 325 324 324 324 324 326 324 326 328 329 330 329 327 327 328 330 333 333 334 334 335 337 338
328 326 324 322 318 317 317 317 315 315 310 317 320 323 323 322 322 322 322 321 320 324 322 325 327 327 327 325 325 326 326 327 329 330 331 333 335 336
326 324 320 318 318 318 316 316 316 317 312 313 316 316 318 318 318 318 317 317 321 322 323 324 326 325 324 323 323 323 322 322 323 324 326 329 331 334
325 321 318 317 316 315 315 314 314 314 314 312 311 312 313 314 314 316 316 319 320 322 323 323 323 322 322 322 321 319 318 317 318 319 320 322 325 329
323 319 316 315 314 315 314 314 313 312 312 309 308 308 310 313 312 310 311 316 316 319 322 322 321 322 322 322 322 321 318 316 315 315 316 316 316 321
320 317 314 313 311 311 312 313 313 310 308 307 306 307 307 309 309 311 311 314 317 319 317 318 320 322 323 322 321 320 319 318 316 315 314 314 314 315
318 315 315 312 312 310 309 308 309 309 307 306 306 306 308 310 311 311 311 311 309 318 315 316 320 320 322 321 320 319 318 317 317 316 316 314 314 314
318 317 315 313 313 313 310 308 308 307 307 308 308 308 309 312 312 312 313 312 312 315 316 312 318 317 321 321 319 318 316 316 316 316 316 315 314 313
319 317 316 314 313 311 311 310 310 310 310 307 310 311 312 313 313 313 313 314 315 315 319 311 315 315 319 322 321 320 317 316 316 315 315 314 312 310
318 316 315 312 307 306 309 308 309 310 309 309 308 308 308 308 308 311 312 310 309 311 317 312 313 313 316 319 322 320 317 314 313 313 313 312 310 309
314 314 306 308 304 304 308 308 307 307 307 308 312 313 314 315 309 314 312 309 309 309 315 310 311 311 308 317 318 322 323 315 311 310 310 309 308 311
311 310 310 304 302 302 302 308 305 304 306 309 310 311 312 312 312 314 315 312 310 310 315 313 310 310 311 311 315 321 318 318 315 313 309 307 306 309
310 311 309 301 300 301 304 301 302 304 307 308 308 308 308 308 310 312 315 316 316 316 318 317 310 310 310 309 311 317 316 316 317 312 310 309 307 308
312 307 304 301 301 305 302 302 303 307 306 306 306 306 307 309 312 312 314 316 316 317 314 316 311 312 311 310 312 314 310 312 312 308 307 306 308 311
304 308 305 302 300 303 305 306 306 306 305 305 305 307 308 307 307 309 308 309 309 309 315 314 313 312 310 311 314 312 311 306 307 306 306 305 309 315
308 309 310 308 307 306 304 304 305 306 305 305 304 304 304 305 306 308 308 308 306 306 307 308 312 314 311 311 312 310 308 305 306 305 303 301 311 311
306 308 308 307 305 304 302 302 304 304 304 304 304 303 303 303 304 306 307 306 306 306 306 306 306 307 306 310 312 308 306 304 304 305 302 300 305 306
308 308 308 306 305 303 302 302 303 304 305 303 303 303 303 304 304 304 305 305 305 306 306 306 305 303 297 297 307 309 304 303 302 303 300 299 300 303
308 309 308 307 305 302 302 303 303 303 303 303 303 304 304 304 304 304 305 304 304 304 304 305 305 301 299 300 302 308 304 304 300 298 298 300 302 305
307 308 309 307 304 303 303 304 304 302 302 303 303 303 304 304 304 305 305 301 302 303 302 302 305 306 305 307 304 303 305 305 303 299 297 297 297 297
307 307 308 307 304 304 304 304 303 303 303 302 303 304 304 305 304 304 304 303 303 303 303 305 306 306 304 301 300 300 300 302 304 302 300 299 296 292
307 307 307 305 304 304 303 302 301 301 303 302 303 304 305 304 305 304 304 304 303 302 302 302 304 305 304 302 299 298 298 298 300 298 296 298 299 300
Wind_Speed
5 5 3 3 3 3 4 5 6 8 9 5 8 9 10 10 12 14 12 15 17 14 12 11 13 14 10 11 10 11 13 14 14 13 16 13 15 17
4 4 4 4 4 4 4 4 4 4 6 8 8 10 10 9 11 12 12 14 10 13 16 14 13 11 10 12 14 13 13 13 14 14 14 14 15 16
5 5 5 5 5 5 4 4 4 4 6 8 8 8 11 12 12 12 11 11 10 11 14 16 13 12 13 13 12 13 14 14 14 15 14 16 17 17
5 4 5 5 5 5 4 5 5 4 5 11 11 10 10 12 12 13 11 10 11 11 15 14 13 14 14 14 13 11 11 13 15 14 15 15 14 14
4 4 5 6 6 6 6 6 5 5 6 8 10 9 9 9 12 11 11 11 9 13 11 11 11 15 14 14 16 14 14 12 10 12 13 12 13 13
4 4 5 6 6 7 6 7 6 7 7 7 8 9 9 10 9 11 11 10 11 10 7 10 13 13 14 16 16 17 15 15 13 12 11 11 10 12
4 3 5 7 8 7 6 8 8 8 8 8 8 8 9 10 11 9 10 11 11 7 9 11 10 9 9 11 11 15 18 20 19 15 12 13 12 11
4 3 2 2 5 6 7 7 6 7 8 8 8 10 11 10 9 10 10 11 12 6 12 12 10 11 11 9 10 14 17 18 18 17 16 14 14 13
3 1 2 3 5 6 5 6 5 6 7 9 10 10 11 11 12 12 11 11 12 12 11 11 11 13 12 11 9 12 14 17 17 16 17 19 15 14
2 1 3 4 5 8 7 8 9 8 8 8 9 10 10 11 11 11 13 12 11 9 8 11 13 11 13 11 10 10 13 16 16 17 18 20 20 16
2 1 3 4 6 7 8 8 9 8 7 8 10 13 14 13 10 9 8 10 11 12 6 11 12 13 12 10 11 12 10 8 8 14 17 16 18 18
3 2 3 5 6 6 7 8 9 11 13 12 10 7 6 5 8 6 8 10 11 10 9 12 11 12 7 8 14 13 10 12 7 13 12 14 15 8
2 1 3 6 6 6 6 7 9 11 11 8 8 7 8 8 8 8 8 9 10 10 10 11 11 11 9 12 9 11 10 13 11 9 12 13 13 11
1 2 3 4 4 5 7 8 10 11 6 6 7 7 8 9 9 10 11 10 9 11 12 12 12 13 12 10 10 12 11 13 9 12 12 14 13 14
1 3 1 2 4 2 6 8 9 6 7 7 8 7 8 9 10 9 11 11 11 9 9 12 12 13 12 8 9 12 10 14 9 12 12 11 9 8
5 3 1 2 2 3 5 4 6 7 7 7 8 8 9 8 9 9 10 10 10 9 11 11 11 13 11 12 10 9 9 9 12 13 13 10 9 5
3 3 2 3 4 5 6 6 6 6 7 7 7 8 8 8 9 9 9 10 11 12 12 12 12 11 11 13 10 7 13 13 11 12 13 10 5 8
4 2 2 4 5 6 6 6 5 7 7 7 8 8 9 9 10 10 10 10 11 12 12 13 13 12 12 11 4 6 11 12 11 11 11 8 7 9
3 1 2 4 5 5 5 5 6 6 7 7 8 8 9 9 10 10 10 11 11 12 12 12 13 12 13 11 9 8 10 12 12 11 10 10 6 9
1 1 2 3 4 4 4 4 5 6 6 7 7 8 8 9 10 11 10 12 12 12 12 11 12 11 10 9 11 8 9 11 11 11 9 8 7 8
3 3 2 3 3 3 4 4 5 6 6 7 8 8 9 9 10 10 11 11 12 12 13 12 12 13 9 11 10 10 12 15 9 10 10 9 8 7
4 3 2 1 2 2 3 3 4 5 6 6 8 8 8 9 10 11 11 12 12 12 11 10 12 11 10 11 13 14 12 13 11 14 20 19 8 8
4 3 2 1 0 1 3 4 5 5 6 7 7 8 8 9 10 10 11 10 11 12 13 12 11 12 11 11 13 11 17 15 12 11 11 20 18 15
Wind_Direction
88 81 59 54 26 0 344 334 327 320 329 353 332 340 330 331 338 334 332 338 316 308 313 324 330 331 333 327 312 303 303 292 283 272 264 264 262 258
78 81 46 26 3 357 350 335 325 319 296 346 335 326 333 331 344 333 329 319 313 318 327 331 328 322 330 331 323 323 316 298 292 293 285 273 256 255
89 69 47 16 0 356 342 345 328 327 300 330 318 342 334 338 333 335 327 321 319 334 328 319 315 316 319 320 320 316 310 306 298 295 290 281 266 255
92 63 32 10 360 10 354 1 354 339 306 321 332 329 333 330 328 325 331 325 322 326 321 310 308 310 310 308 303 302 300 295 296 292 283 276 272 267
90 55 27 12 18 12 6 356 350 332 316 311 318 325 332 340 328 328 332 324 320 323 296 286 306 304 299 298 300 305 305 297 271 277 283 274 273 271
99 57 32 17 9 4 358 351 351 328 333 318 324 327 331 341 328 334 334 338 331 325 310 294 296 290 287 293 295 295 311 302 310 291 277 282 270 264
109 55 47 28 21 10 344 350 340 335 330 330 325 327 335 337 339 330 326 330 327 313 325 318 322 318 313 300 311 306 299 300 305 297 284 275 262 247
122 74 60 17 6 353 346 333 336 337 327 321 320 330 325 326 328 328 316 330 331 329 326 319 323 322 323 319 291 300 302 298 295 293 287 273 257 245
134 137 319 16 326 336 333 318 322 321 320 317 313 314 312 318 315 310 318 315 311 319 310 314 323 324 324 325 302 277 271 281 280 281 281 279 260 245
140 237 305 337 4 331 330 336 337 329 340 325 307 297 296 308 302 300 300 295 287 310 344 311 326 321 323 320 296 271 269 271 276 275 285 267 259 257
150 242 329 345 8 341 336 342 331 334 327 304 286 286 292 293 293 300 325 315 327 331 339 329 324 324 328 316 347 334 308 285 279 309 305 294 259 251
178 142 82 11 6 9 349 343 336 342 329 330 328 321 303 306 238 301 315 318 323 323 355 327 325 334 323 307 333 330 331 327 312 291 290 296 286 263
172 137 63 19 6 9 338 1 337 316 321 317 326 329 334 339 339 340 325 309 314 312 352 333 323 317 316 306 309 317 337 315 333 313 306 300 285 274
140 98 72 15 355 11 335 347 319 301 334 332 335 344 342 336 335 328 318 312 311 297 312 327 314 320 323 306 306 323 326 330 334 327 323 314 294 282
137 50 326 263 264 269 24 330 309 351 347 349 348 345 333 325 314 322 323 321 315 308 330 328 325 326 308 309 308 329 321 332 342 326 326 318 301 289
177 177 129 306 247 295 322 344 358 359 346 346 341 335 330 336 331 335 328 332 322 334 339 342 339 326 322 325 317 323 325 334 330 330 330 320 317 328
206 212 273 344 359 3 0 359 355 355 353 345 338 335 336 336 339 335 334 332 332 337 338 345 348 335 337 326 323 335 330 341 341 332 340 334 346 4
215 259 356 1 4 359 355 354 356 354 354 335 334 342 343 339 343 336 340 338 335 339 339 343 342 347 343 344 4 324 344 339 340 339 344 335 328 1
234 123 18 9 6 353 352 352 349 353 329 343 340 341 341 340 334 345 343 342 341 340 341 346 347 356 341 339 324 32 350 349 340 343 345 340 328 336
181 134 50 18 360 352 344 346 342 350 350 339 340 339 342 341 343 347 344 344 342 340 342 349 357 350 329 323 311 334 26 358 351 342 341 330 323 335
150 140 70 17 360 333 336 340 342 352 333 335 344 340 342 343 344 346 344 338 332 347 348 348 355 327 327 323 336 342 345 4 20 2 347 329 335 348
154 145 116 21 341 327 332 343 334 333 345 340 341 341 343 341 345 344 346 347 354 348 349 343 347 347 350 350 346 347 346 349 2 35 15 12 352 0
160 156 150 101 210 319 335 340 333 333 339 341 344 342 343 342 345 347 351 355 3 354 352 348 355 355 358 357 358 352 353 357 353 8 7 9 13 28